User: anonymous   Login
Location: Fort Wayne
(41.1310°N, 85.1290°W)
Time: 05:45:25
(UTC-05:00)
Language:

Cosmos 2082 - Orbit

View from above orbital plane
View from above orbital plane
View from above satellite
View from above satellite

Ground track
Ground track

The orbit data is extracted from the following two-line orbital elements,

1 20624U 90046A   16041.83066672 -.00000270  00000-0 -11654-3 0  9994
2 20624  71.0402 165.0625 0012935  52.8518 307.3783 14.14183071327580
Epoch (UTC): 10 February 2016 19:56:09
Eccentricity: 0.0012935
inclination: 71.0402°
perigee height: 836 km
apogee height: 854 km
right ascension of ascending node: 165.0625°
argument of perigee: 52.8518°
revolutions per day: 14.14183071
mean anomaly at epoch: 307.3783°
orbit number at epoch: 32758

The dashed part of the orbit path shows where the satellite is in the earth's shadow,  

DLR